Dunkirk, NY

1:40 AM EDT on April 25, 2017 (GMT -0400)
Chautauqua County-Dunkirk

Weather History for KDKK - August, 2013

Change the Weather History Date:

Saturday, August 3, 2013

  Actual Average Record
Temperature  
Mean Temperature 67 °F -  
Max Temperature 73 °F 79 °F 92 °F (1930)
Min Temperature 61 °F 63 °F 48 °F (1976)
Cooling Degree Days 2    
Growing Degree Days 17 (Base 50)    
Moisture  
Dew Point 58 °F    
Average Humidity 71    
Maximum Humidity 94    
Minimum Humidity 51    
Precipitation  
Precipitation 0.00 in - - ()
Sea Level Pressure  
Sea Level Pressure 29.93 in    
Wind  
Wind Speed 11 mph (West)    
Max Wind Speed 17 mph    
Max Gust Speed 26 mph    
Visibility 10 miles    
Events      
Averages and records for this station are not official NWS values.
T = Trace of Precipitation, MM = Missing Value Source: NWS Daily Summary

Daily Weather History Graph

Daily Weather History Graph

Search for Another Location

Airport or City:

Trip Planner

Search our weather history database for the weather conditions in past years. The results will help you decide how hot, cold, wet, or windy it might be!

Date:

Astronomy

Aug. 03, 2013 Rise Set
Actual Time 6:11 AM EDT 8:34 PM EDT
Civil Twilight 5:39 AM EDT 9:05 PM EDT
Nautical Twilight 5:00 AM EDT 9:44 PM EDT
Astronomical Twilight 4:16 AM EDT 10:28 PM EDT
Moon 3:18 AM EDT (8/3) 6:15 PM EDT (8/3)
Length of Visible Light 15h 25m
Length of Day
14h 22m
Waning Crescent, 9% of the Moon is Illuminated
Aug 3
Waning Crescent
Aug 6
New
Aug 14
First Quarter
Aug 20
Full
Aug 28
Last Quarter

Hourly Weather History & Observations

Time (EDT) Temp. Dew Point Humidity Pressure Visibility Wind Dir Wind Speed Gust Speed Precip Events Conditions
12:53 AM 70.0 °F 62.1 °F 76% 29.86 in 10.0 mi WSW 13.8 mph 21.9 mph N/A   Scattered Clouds
1:32 AM 69.8 °F 62.6 °F 78% 29.87 in 10.0 mi WSW 11.5 mph - N/A   Mostly Cloudy
1:53 AM 70.0 °F 63.0 °F 78% 29.86 in 10.0 mi West 13.8 mph 26.5 mph N/A   Mostly Cloudy
2:15 AM 69.8 °F 60.8 °F 73% 29.87 in 10.0 mi WSW 12.7 mph 21.9 mph N/A   Partly Cloudy
2:53 AM 69.1 °F 62.1 °F 78% 29.87 in 10.0 mi WSW 8.1 mph 19.6 mph N/A   Mostly Cloudy
3:00 AM 69.8 °F 62.6 °F 78% 29.88 in 10.0 mi West 11.5 mph 20.7 mph N/A   Mostly Cloudy
3:35 AM 68.0 °F 60.8 °F 78% 29.89 in 10.0 mi West 17.3 mph 23.0 mph N/A   Scattered Clouds
3:53 AM 66.9 °F 60.1 °F 79% 29.88 in 10.0 mi West 11.5 mph 20.7 mph N/A   Mostly Cloudy
4:17 AM 66.2 °F 59.0 °F 78% 29.89 in 10.0 mi West 10.4 mph - N/A   Scattered Clouds
4:53 AM 64.9 °F 59.0 °F 81% 29.89 in 10.0 mi WSW 3.5 mph - N/A   Clear
5:33 AM 64.4 °F 60.8 °F 88% 29.92 in 10.0 mi West 9.2 mph - N/A   Mostly Cloudy
5:53 AM 64.9 °F 60.1 °F 84% 29.92 in 10.0 mi West 8.1 mph - N/A   Overcast
6:09 AM 64.4 °F 60.8 °F 88% 29.93 in 10.0 mi West 8.1 mph - N/A   Mostly Cloudy
6:21 AM 64.4 °F 59.0 °F 83% 29.93 in 10.0 mi West 5.8 mph - N/A   Scattered Clouds
6:53 AM 61.0 °F 59.0 °F 93% 29.93 in 10.0 mi SW 3.5 mph - N/A   Clear
7:06 AM 62.6 °F 60.8 °F 94% 29.94 in 10.0 mi Calm Calm - N/A   Partly Cloudy
7:53 AM 66.0 °F 61.0 °F 84% 29.94 in 10.0 mi SW 3.5 mph - N/A   Clear
8:53 AM 66.9 °F 57.0 °F 70% 29.94 in 10.0 mi WNW 11.5 mph - N/A   Overcast
9:53 AM 68.0 °F 57.0 °F 68% 29.95 in 10.0 mi West 11.5 mph - N/A   Overcast
10:53 AM 70.0 °F 52.0 °F 53% 29.95 in 10.0 mi West 8.1 mph 17.3 mph N/A   Clear
11:53 AM 70.0 °F 55.0 °F 59% 29.96 in 10.0 mi West 13.8 mph - N/A   Clear
12:53 PM 71.1 °F 54.0 °F 55% 29.96 in 10.0 mi West 13.8 mph 21.9 mph N/A   Clear
1:53 PM 72.0 °F 53.1 °F 51% 29.96 in 10.0 mi West 12.7 mph 19.6 mph N/A   Clear
2:53 PM 73.0 °F 54.0 °F 51% 29.96 in 10.0 mi West 12.7 mph 21.9 mph N/A   Clear
3:53 PM 73.9 °F 55.9 °F 53% 29.96 in 10.0 mi WSW 12.7 mph 23.0 mph N/A   Clear
4:53 PM 73.0 °F 57.0 °F 57% 29.95 in 10.0 mi WSW 11.5 mph 24.2 mph N/A   Clear
5:53 PM 72.0 °F 59.0 °F 64% 29.96 in 10.0 mi WSW 12.7 mph 21.9 mph N/A   Clear
6:53 PM 71.1 °F 57.9 °F 63% 29.95 in 10.0 mi WSW 13.8 mph 23.0 mph N/A   Partly Cloudy
7:53 PM 70.0 °F 57.0 °F 63% 29.96 in 10.0 mi West 11.5 mph 20.7 mph N/A   Scattered Clouds
8:53 PM 70.0 °F 53.1 °F 55% 29.96 in 10.0 mi West 13.8 mph 20.7 mph N/A   Clear
9:53 PM 69.1 °F 52.0 °F 54% 29.97 in 10.0 mi WNW 13.8 mph - N/A   Partly Cloudy
10:53 PM 68.0 °F 54.0 °F 61% 29.98 in 10.0 mi WNW 11.5 mph - N/A   Clear
11:53 PM 68.0 °F 55.0 °F 63% 29.98 in 10.0 mi NW 12.7 mph - N/A   Mostly Cloudy